Weather in Abrikosovo

Russia / Republic of Crimea     45°41′24″N   34°05′45″E
temp.,
°C
wind,
m/s
gust,
m/s
humid.,
%
clouds,
%
prec.,
mm/h
press.,
hPa
HPBL,
m
25 february, thu
thu2500:00−3ese247168 0.0 1037156
03:00−3e126936 0.0 103634
06:00−2se116775 0.0 103521
09:000s235987 0.0 1035200
12:00+2sw225191 0.0 1035271
15:00+3w245996 0.0 1033358
18:00+3wsw2378100 0.0 103250
21:00+2sw3694100 0.0 1032127
26 february, fri
fri2600:00+3sw3696100 0.0 1031133
03:00+3wsw3796100 0.0 1030154
06:00+4wsw3796100 0.1 1029154
09:00+6wsw379392 0.1 1029264
12:00+11w577269 0.0 1028765
15:00+13wnw686461 0.0 1027940
18:00+11wsw48738 0.0 1024235
21:00+7sw612904 0.0 1024314
27 february, sat
sat2700:00+7sw614920 0.0 1022377
03:00+6wsw613931 0.0 1021438
06:00+7sw7139352 0.0 1019434
09:00+8wsw7108974 0.0 1018581
12:00+8w4786100 0.2 1017493
15:00+6nw5995100 1.3 1016360
18:00+6nw5879100 1.8 1015666
21:00+5nw596898 1.9 1017651
28 february, sun
sun2800:00+5wnw4969100 0.0 1016418
03:00+3nw5108598 0.1 1017675
06:00+3nw588079 0.1 1018701
09:00+2nw589487 0.1 1020501
12:00+4nnw686994 0.2 10211049
15:00+5nnw576795 0.3 10221034
18:00+4nnw5764100 0.1 10231196
21:00+3nnw4775100 0.2 1025687
1 march, mon
mon100:00+2nnw378097 0.1 1026381
03:00+2nnw368098 0.2 1026256
06:00+1nnw368799 0.1 1027236
09:00+1n348398 0.1 1028416
12:00+4n446192 0.1 10291042
15:00+5n455996 0.3 10291130
18:00+3nne4563100 0.1 1030972
21:00+2ne257598 0.2 1032606